sat.trackr.live / text

‹ back to catalog

STARLINK-5814

NORAD 55777 · 2023-028AN

PAYLOAD ACTIVE UNKNOWN

§ Identity

Operator
Country
US
Launch date
2023-03-03
Launch site
AFWTR
Launch vehicle
Mass (kg)
RCS (m²)

Purposes: comms

External: N2YO · Heavens-Above · Gunter

§ Orbital elements

Epoch: 2026-05-25T02:43:40.648224Z

Period
96.11 min
Inclination
70.0000°
Eccentricity
0.0002633
Mean motion
14.98333719 rev/d
Perigee alt
570.2 km
Apogee alt
573.9 km
Semi-major
6,950.2 km
B*
1.5227e-5
RAAN
31.6484°
Arg perigee
271.2645°
Mean anomaly
88.8212°
Rev number
17,798

§ Raw data

STARLINK-58141 55777U 23028AN  26145.11366491  .00000089  00000+0  15227-4 0  99922 55777  70.0000  31.6484 0002633 271.2645  88.8212 14.98333719177986

JSON: /api/v1/satellites/55777 · /tle

For live sub-satellite position, see the globe view (requires WebGL).

§ Visibility from observer

Set your observer location to see the next 7 days of passes ≥ 10°. The values pass through the URL so the page stays shareable.

No JS? Fill the form by hand. The geolocation button needs JavaScript.